Weather History for Cairo, IL

Change the Weather History Date:

Monday, June 24, 2013

  Actual Average Record
Temperature  
Mean Temperature 82 °F -  
Max Temperature 95 °F 88 °F 102 °F (1988)
Min Temperature 71 °F 68 °F 55 °F (1974)
Cooling Degree Days 18    
Growing Degree Days 32 (Base 50)    
Moisture  
Dew Point 71 °F    
Average Humidity 70    
Maximum Humidity 92    
Minimum Humidity 40    
Precipitation  
Precipitation 0.00 in - - ()
Sea Level Pressure  
Sea Level Pressure 30.06 in    
Wind  
Wind Speed 4 mph (South)    
Max Wind Speed 12 mph    
Max Gust Speed -    
Visibility 9 miles    
Events      
Averages and records for this station are not official NWS values.
T = Trace of Precipitation, MM = Missing Value Source: NWS Daily Summary

Daily Weather History Graph

Daily Weather History Graph

Search for Another Location

Airport:

Trip Planner

Search our weather history database for the weather conditions in past years. The results will help you decide how hot, cold, wet, or windy it might be!

Date:

Astronomy

Jun. 24, 2013 Rise Set
Actual Time 5:38 AM CDT 8:20 PM CDT
Civil Twilight 5:07 AM CDT 8:51 PM CDT
Nautical Twilight 4:28 AM CDT 9:29 PM CDT
Astronomical Twilight 3:45 AM CDT 10:13 PM CDT
Moon 9:26 PM CDT (6/24) 7:03 AM CDT (6/24)
Length of Visible Light 15h 44m
Length of Day
14h 42m
Full, 98% of the Moon is Illuminated
Jun 24
Full
Jun 29
Last Quarter
Jul 8
New
Jul 15
First Quarter
Jul 22
Full

Hourly Weather History & Observations

Time (CDT) Temp. Heat Index Dew Point Humidity Pressure Visibility Wind Dir Wind Speed Gust Speed Precip Events Conditions
12:15 AM 73.0 °F - 68.4 °F 85% 30.05 in 10.0 mi SSE 4.6 mph - N/A   Clear
12:35 AM 73.9 °F - 68.9 °F 84% 30.04 in 10.0 mi SSE 8.1 mph - N/A   Clear
12:55 AM 74.3 °F - 68.9 °F 83% 30.05 in 10.0 mi Calm Calm - N/A   Clear
1:15 AM 74.3 °F - 68.9 °F 83% 30.05 in 10.0 mi Calm Calm - N/A   Clear
1:35 AM 73.8 °F - 68.9 °F 85% 30.05 in 7.0 mi Calm Calm - N/A   Clear
1:55 AM 73.6 °F - 69.3 °F 86% 30.06 in 10.0 mi NNE 3.5 mph - N/A   Clear
2:15 AM 73.6 °F - 69.4 °F 87% 30.06 in 10.0 mi Calm Calm - N/A   Clear
2:35 AM 73.6 °F - 69.4 °F 87% 30.06 in 10.0 mi Calm Calm - N/A   Clear
2:55 AM 73.4 °F - 69.4 °F 87% 30.06 in 10.0 mi Calm Calm - N/A   Clear
3:15 AM 73.0 °F - 69.1 °F 87% 30.06 in 10.0 mi Calm Calm - N/A   Clear
3:35 AM 73.4 °F - 69.4 °F 87% 30.05 in 10.0 mi Calm Calm - N/A   Clear
3:55 AM 72.7 °F - 68.9 °F 88% 30.05 in 10.0 mi Calm Calm - N/A   Clear
4:15 AM 72.7 °F - 69.1 °F 88% 30.05 in 7.0 mi Calm Calm - N/A   Clear
4:35 AM 72.5 °F - 69.1 °F 89% 30.05 in 7.0 mi Calm Calm - N/A   Clear
4:55 AM 72.0 °F - 68.9 °F 90% 30.05 in 7.0 mi Calm Calm - N/A   Clear
5:15 AM 71.8 °F - 68.7 °F 90% 30.06 in 5.0 mi Calm Calm - N/A   Clear
5:35 AM 71.6 °F - 68.7 °F 91% 30.06 in 5.0 mi Calm Calm - N/A   Clear
5:55 AM 72.0 °F - 69.1 °F 91% 30.07 in 5.0 mi Calm Calm - N/A   Clear
6:15 AM 72.0 °F - 69.3 °F 91% 30.08 in 4.0 mi Calm Calm - N/A   Clear
6:35 AM 72.5 °F - 69.8 °F 91% 30.09 in 4.0 mi Calm Calm - N/A   Clear
6:55 AM 74.1 °F - 71.6 °F 92% 30.10 in 7.0 mi Calm Calm - N/A   Clear
7:15 AM 75.9 °F - 72.7 °F 90% 30.11 in 7.0 mi Calm Calm - N/A   Clear
7:35 AM 76.5 °F - 72.7 °F 88% 30.11 in 5.0 mi SE 3.5 mph - N/A   Clear
7:55 AM 78.1 °F - 72.9 °F 84% 30.11 in 10.0 mi South 3.5 mph - N/A   Clear
8:15 AM 79.5 °F - 72.7 °F 79% 30.12 in 10.0 mi South 3.5 mph - N/A   Clear
8:35 AM 81.0 °F 85.8 °F 73.2 °F 77% 30.12 in 10.0 mi South 5.8 mph - N/A   Clear
8:55 AM 82.2 °F 87.8 °F 73.2 °F 74% 30.12 in 10.0 mi SSW 4.6 mph - N/A   Clear
9:15 AM 82.6 °F 88.1 °F 72.9 °F 72% 30.12 in 10.0 mi SW 6.9 mph - N/A   Clear
9:35 AM 84.6 °F 91.0 °F 72.9 °F 68% 30.12 in 10.0 mi SSW 6.9 mph - N/A   Clear
9:55 AM 86.0 °F 93.0 °F 73.2 °F 65% 30.12 in 10.0 mi SSW 4.6 mph - N/A   Clear
10:15 AM 86.9 °F 94.5 °F 73.2 °F 64% 30.12 in 10.0 mi SSW 5.8 mph - N/A   Clear
10:35 AM 87.4 °F 94.4 °F 72.7 °F 61% 30.12 in 10.0 mi SW 6.9 mph - N/A   Clear
10:55 AM 88.5 °F 96.3 °F 73.2 °F 60% 30.12 in 10.0 mi SW 9.2 mph - N/A   Clear
11:15 AM 89.1 °F 96.0 °F 72.0 °F 57% 30.11 in 10.0 mi SW 8.1 mph - N/A   Clear
11:35 AM 89.6 °F 96.6 °F 72.1 °F 56% 30.10 in 10.0 mi SW 8.1 mph - N/A   Clear
11:55 AM 89.8 °F 97.5 °F 72.5 °F 57% 30.10 in 10.0 mi SW 8.1 mph - N/A   Clear
12:15 PM 90.0 °F 96.9 °F 71.8 °F 55% 30.09 in 10.0 mi WSW 6.9 mph - N/A   Scattered Clouds
12:35 PM 91.0 °F 98.2 °F 72.0 °F 53% 30.08 in 10.0 mi SW 6.9 mph - N/A   Scattered Clouds
12:55 PM 91.8 °F 98.1 °F 70.7 °F 50% 30.07 in 10.0 mi WSW 6.9 mph - N/A   Clear
1:15 PM 92.3 °F 98.1 °F 69.8 °F 48% 30.06 in 10.0 mi WSW 6.9 mph - N/A   Clear
1:35 PM 92.3 °F 96.5 °F 68.4 °F 45% 30.06 in 10.0 mi SW 8.1 mph - N/A   Clear
1:55 PM 93.2 °F 96.7 °F 66.9 °F 42% 30.06 in 10.0 mi SSW 9.2 mph - N/A   Clear
2:15 PM 93.6 °F 97.9 °F 68.0 °F 43% 30.05 in 10.0 mi WSW 8.1 mph - N/A   Clear
2:35 PM 93.4 °F 97.6 °F 67.8 °F 43% 30.05 in 10.0 mi WSW 8.1 mph - N/A   Clear
2:55 PM 94.1 °F 98.9 °F 68.2 °F 43% 30.04 in 10.0 mi WSW 5.8 mph - N/A   Clear
3:15 PM 94.1 °F 99.5 °F 69.1 °F 44% 30.04 in 10.0 mi SSW 5.8 mph - N/A   Clear
3:35 PM 94.1 °F 97.9 °F 67.3 °F 41% 30.03 in 10.0 mi SW 4.6 mph - N/A   Clear
3:55 PM 94.5 °F 98.0 °F 66.7 °F 40% 30.03 in 10.0 mi SSW 6.9 mph - N/A   Clear
4:15 PM 94.6 °F 98.9 °F 67.8 °F 41% 30.03 in 10.0 mi SSW 4.6 mph - N/A   Clear
4:35 PM 94.8 °F 98.7 °F 66.7 °F 40% 30.02 in 10.0 mi South 4.6 mph - N/A   Scattered Clouds
4:55 PM 90.0 °F 97.9 °F 73.0 °F 57% 30.02 in 10.0 mi East 11.5 mph - N/A   Scattered Clouds
5:15 PM 87.4 °F 94.4 °F 72.5 °F 61% 30.02 in 10.0 mi East 10.4 mph - N/A   Scattered Clouds
5:35 PM 87.4 °F 94.4 °F 72.5 °F 61% 30.02 in 7.0 mi East 8.1 mph - N/A   Scattered Clouds
5:55 PM 88.2 °F 96.9 °F 73.9 °F 63% 30.02 in 10.0 mi East 9.2 mph - N/A   Mostly Cloudy
6:15 PM 87.1 °F 94.9 °F 73.6 °F 64% 30.02 in 10.0 mi East 9.2 mph - N/A   Mostly Cloudy
6:35 PM 86.9 °F 95.0 °F 73.9 °F 65% 30.02 in 10.0 mi East 9.2 mph - N/A   Scattered Clouds
6:55 PM 86.9 °F 95.0 °F 73.8 °F 65% 30.02 in 10.0 mi ESE 9.2 mph - N/A   Scattered Clouds
7:15 PM 86.2 °F 93.0 °F 72.9 °F 64% 30.02 in 10.0 mi ESE 9.2 mph - N/A   Mostly Cloudy
7:35 PM 85.3 °F 92.2 °F 73.0 °F 67% 30.02 in 10.0 mi ESE 6.9 mph - N/A   Mostly Cloudy
7:55 PM 84.7 °F 91.0 °F 72.5 °F 67% 30.02 in 10.0 mi SE 6.9 mph - N/A   Scattered Clouds
8:15 PM 84.2 °F 90.3 °F 72.5 °F 68% 30.02 in 10.0 mi ESE 5.8 mph - N/A   Scattered Clouds
8:35 PM 82.9 °F 88.5 °F 72.5 °F 71% 30.02 in 10.0 mi ESE 3.5 mph - N/A   Clear
8:55 PM 82.9 °F 88.5 °F 72.7 °F 71% 30.02 in 10.0 mi SE 5.8 mph - N/A   Scattered Clouds
9:15 PM 82.4 °F 87.9 °F 72.9 °F 73% 30.02 in 10.0 mi SE 5.8 mph - N/A   Scattered Clouds
9:35 PM 82.0 °F 87.4 °F 73.0 °F 74% 30.01 in 10.0 mi SE 9.2 mph - N/A   Scattered Clouds
9:55 PM 82.4 °F 88.2 °F 73.4 °F 74% 30.01 in 10.0 mi SSE 6.9 mph - N/A   Scattered Clouds
10:15 PM 82.4 °F 87.9 °F 72.9 °F 73% 30.01 in 10.0 mi SSE 6.9 mph - N/A   Clear
10:35 PM 82.0 °F 87.2 °F 72.7 °F 73% 30.02 in 10.0 mi SSE 6.9 mph - N/A   Clear
10:55 PM 82.0 °F 87.2 °F 72.7 °F 73% 30.02 in 5.0 mi SSE 5.8 mph - N/A   Haze
11:15 PM 82.0 °F 87.2 °F 72.5 °F 73% 30.02 in 10.0 mi SSE 6.9 mph - N/A   Clear
11:35 PM 81.9 °F 86.6 °F 72.1 °F 72% 30.02 in 10.0 mi SSE 8.1 mph - N/A   Clear
11:55 PM 81.7 °F 86.5 °F 72.1 °F 73% 30.02 in 10.0 mi SSE 5.8 mph - N/A   Clear